This is the latest recevied weather packets stored in our database for station/object KC5DAQ-26. If no packets are shown the sender has not sent any weather packets the latest 1 day(s).
| Time | Temp. | Humidity | Pressure | Rain* | Wind** | Luminosity | Snow |
|---|---|---|---|---|---|---|---|
| 1778077875 | 26.11° C | 91% | 1012.7 hPa | 0 mm | - | 174 W/m² | - |
| 1778077455 | 26.11° C | 92% | 1012.7 hPa | 0 mm | - | 143 W/m² | - |
| 1778077216 | 26.11° C | 92% | 1012.8 hPa | 0 mm | - | 150 W/m² | - |
| 1778076855 | 26.11° C | 92% | 1012.7 hPa | 0 mm | - | 197 W/m² | - |
| 1778076737 | 26.11° C | 93% | 1012.7 hPa | 0 mm | - | 139 W/m² | - |
| 1778076554 | 26.11° C | 93% | 1012.8 hPa | 0 mm | - | 190 W/m² | - |
| 1778076494 | 26.11° C | 93% | 1012.8 hPa | 0 mm | - | 190 W/m² | - |
| 1778076196 | 25.56° C | 94% | 1013 hPa | 0 mm | - | 164 W/m² | - |
| 1778075894 | 25.56° C | 94% | 1012.9 hPa | 0 mm | - | 169 W/m² | - |
| 1778075775 | 25.56° C | 94% | 1012.9 hPa | 0 mm | - | 160 W/m² | - |
| 1778075714 | 25.56° C | 94% | 1013 hPa | 0 mm | - | 160 W/m² | - |
| 1778075654 | 25.56° C | 95% | 1012.9 hPa | 0 mm | - | 158 W/m² | - |
| 1778075535 | 25.56° C | 95% | 1012.9 hPa | 0 mm | - | 120 W/m² | - |
| 1778075414 | 25.56° C | 95% | 1013 hPa | 0 mm | - | 157 W/m² | - |
| 1778075107 | 25.56° C | 95% | 1012.9 hPa | 0 mm | - | 132 W/m² | - |
| 1778075044 | 25° C | 95% | 1012.9 hPa | 0 mm | - | 132 W/m² | - |
| 1778074924 | 25° C | 95% | 1013 hPa | 0 mm | - | 100 W/m² | - |
| 1778074863 | 25° C | 96% | 1012.9 hPa | 0 mm | - | 100 W/m² | - |
| 1778074744 | 25° C | 96% | 1012.9 hPa | 0 mm | - | 100 W/m² | - |
| 1778074683 | 25° C | 95% | 1013 hPa | 0 mm | - | 100 W/m² | - |
| 1778074325 | 25° C | 96% | 1013 hPa | 0 mm | - | 128 W/m² | - |
| 1778074265 | 25° C | 96% | 1012.9 hPa | 0 mm | - | 128 W/m² | - |
| 1778074144 | 25° C | 96% | 1013 hPa | 0 mm | - | 114 W/m² | - |
| 1778073751 | 24.44° C | 96% | 1013 hPa | 0 mm | - | 70 W/m² | - |
| 1778073693 | 24.44° C | 96% | 1013.1 hPa | 0 mm | - | 62 W/m² | - |
* Rain latest hour (hover to see other rain measurements)
** Current wind speed in m/s (hover to see current wind gust speed)